W9KOZ-6 Weather Reports


Display with metric or nautical units.
time (UTC)temp
F
wind
direction
speed
MPH
gust
MPH
rain 1hr
in
rain 24hr
in
rain mn
in
humidity
%
barometer
mb
20260505200307 37 151 6.0 17.0 0.02 0.19 0.04 99 1025.3
20260505195308 37 106 7.0 17.0 0.02 0.20 0.04 99 1025.3
20260505194308 37 66 7.0 13.0 0.01 0.24 0.03 99 1025.3
20260505193310 37 117 5.0 10.0 0.01 0.26 0.03 99 1025.3
20260505192752 37 338 4.0 12.0 0.00 0.25 0.02 99 1025.5
20260505191303 37 124 4.0 15.0 0.00 0.25 0.02 99 1025.5
20260505190303 37 105 3.0 15.0 0.00 0.25 0.02 99 1025.5
20260505185305 37 121 2.0 5.0 0.00 0.25 0.02 99 1025.5
20260505184303 37 124 2.0 4.0 0.00 0.25 0.02 99 1025.5
20260505183746 36 41 2.0 3.0 0.00 0.25 0.02 99 1025.3
20260505182305 37 346 3.0 5.0 0.00 0.25 0.02 99 1025.3
20260505181304 37 338 3.0 6.0 0.00 0.25 0.02 99 1025.3
20260505180258 37 343 4.0 7.0 0.00 0.25 0.02 99 1025.3
20260505175257 37 343 5.0 8.0 0.00 0.25 0.02 99 1025.3
20260505174258 36 70 5.0 10.0 0.00 0.25 0.02 99 1025.3
20260505173258 36 305 9.0 16.0 0.00 0.25 0.02 99 1025.3
20260505172739 36 3 9.0 15.0 0.00 0.25 0.02 99 1025.2
20260505171258 36 7 6.0 11.0 0.00 0.25 0.02 99 1025.2
20260505170258 36 359 7.0 11.0 0.00 0.26 0.02 99 1025.2
20260505165255 36 351 7.0 12.0 0.00 0.28 0.02 99 1025.2
20260505164252 36 339 8.0 12.0 0.00 0.28 0.02 99 1025.2
20260505163253 36 4 8.0 14.0 0.02 0.29 0.02 99 1025.2
20260505162253 36 357 7.0 11.0 0.02 0.30 0.02 99 1025.2
20260505161253 36 5 9.0 13.0 0.02 0.30 0.02 99 1025.2
20260505160253 37 352 8.0 11.0 0.02 0.31 0.02 99 1025.2
20260505153251 37 338 9.0 13.0 0.00 0.38 0.00 99 1025.2
20260505152251 37 2 8.0 14.0 0.00 0.40 0.00 99 1025.2
20260505151251 37 4 9.0 14.0 0.00 0.41 0.00 99 1025.2
20260505150251 37 11 9.0 13.0 0.00 0.43 0.00 99 1025.3
20260505140249 41 127 3.0 7.0 0.00 0.62 0.00 99 1025.6
20260505130243 42 148 3.0 5.0 0.00 0.62 0.00 99 1025.7
20260505124723 43 162 3.0 7.0 0.00 0.62 0.00 99 1025.7
20260505123245 43 132 3.0 7.0 0.00 0.62 0.00 99 1025.7
20260505122246 43 129 4.0 8.0 0.00 0.62 0.00 99 1025.7
20260505121239 43 0 4.0 7.0 0.00 0.62 0.00 99 1025.7
20260505121211 44 0 2.0 8.0 0.00 0.62 0.00 99 1025.7
20260505115238 44 186 3.0 8.0 0.00 0.62 0.00 99 1025.8
20260505114238 44 118 2.0 6.0 0.00 0.62 0.00 99 1025.8
20260505113238 44 0 2.0 6.0 0.00 0.62 0.00 99 1025.8
20260505112239 45 0 1.0 4.0 0.00 0.62 0.00 99 1025.8
20260505111239 45 0 1.0 3.0 0.00 0.62 0.00 99 1025.8
20260505110715 45 166 2.0 6.0 0.00 0.62 0.00 99 1025.8
20260505101224 44 216 2.0 3.0 0.00 0.62 0.00 99 1025.6
20260505100219 44 254 2.0 5.0 0.00 0.62 0.00 99 1025.6
20260505095219 44 260 3.0 5.0 0.00 0.62 0.00 99 1025.5
20260505094219 45 187 3.0 4.0 0.00 0.62 0.00 99 1025.6
20260505093217 45 230 2.0 4.0 0.00 0.62 0.00 99 1025.6
20260505092214 45 216 2.0 3.0 0.00 0.62 0.00 99 1025.6
20260505091214 45 226 2.0 3.0 0.00 0.62 0.00 99 1025.6
20260505090214 46 327 1.0 3.0 0.00 0.62 0.00 99 1025.6
20260505085214 46 131 2.0 4.0 0.00 0.62 0.00 99 1025.7
20260505084215 46 77 2.0 3.0 0.00 0.62 0.00 99 1025.8
20260505083215 46 346 2.0 4.0 0.00 0.62 0.00 99 1025.8
20260505082213 46 9 2.0 5.0 0.00 0.62 0.00 99 1025.8
20260505081209 46 339 3.0 5.0 0.00 0.62 0.00 99 1025.9
20260505080210 46 356 3.0 7.0 0.00 0.62 0.00 99 1025.9
20260505075210 46 338 4.0 7.0 0.00 0.62 0.00 99 1025.9
20260505074646 46 355 4.0 7.0 0.00 0.62 0.00 99 1025.9
20260505073649 46 337 4.0 7.0 0.00 0.62 0.00 99 1025.9
20260505072207 46 349 5.0 9.0 0.00 0.62 0.00 99 1025.8
20260505071208 46 5 5.0 8.0 0.00 0.62 0.00 99 1025.8
20260505070208 46 329 4.0 8.0 0.00 0.62 0.00 99 1025.8
20260505065209 46 332 4.0 9.0 0.00 0.62 0.00 99 1025.8
20260505064209 46 349 4.0 7.0 0.01 0.62 0.00 99 1025.7
20260505063208 46 299 3.0 6.0 0.02 0.62 0.00 99 1025.7
20260505062207 46 333 3.0 6.0 0.02 0.62 0.00 99 1025.7
20260505061205 46 10 4.0 7.0 0.02 0.62 0.00 99 1025.7
20260505060204 46 48 4.0 7.0 0.02 0.62 0.00 99 1025.8
20260505055205 47 353 4.0 7.0 0.02 0.61 0.61 99 1025.8
20260505054205 47 351 5.0 8.0 0.01 0.61 0.61 99 1025.8
20260505053205 48 60 4.0 7.0 0.00 0.63 0.60 99 1025.8
20260505052205 49 35 4.0 9.0 0.00 0.63 0.60 99 1025.9
20260505051202 49 349 6.0 10.0 0.00 0.63 0.60 99 1026.1
20260505050203 49 3 5.0 9.0 0.00 0.63 0.60 99 1026.1
20260505041201 49 339 6.0 12.0 0.00 0.63 0.60 99 1026.1
20260505040641 49 9 6.0 10.0 0.00 0.63 0.60 99 1026.1
20260505035201 49 330 6.0 12.0 0.00 0.63 0.60 99 1026.1
20260505034201 49 339 6.0 11.0 0.00 0.63 0.60 99 1026.1
20260505033201 50 320 6.0 12.0 0.00 0.63 0.60 99 1026.1
20260505032158 50 330 7.0 12.0 0.00 0.63 0.60 99 1026.1
20260505031158 51 333 6.0 11.0 0.00 0.63 0.60 99 1026.1
20260505030159 51 345 6.0 9.0 0.00 0.63 0.60 99 1026.1
20260505025159 51 5 7.0 12.0 0.00 0.63 0.60 99 1026.2
20260505024159 51 350 6.0 12.0 0.00 0.63 0.60 99 1026.2
20260505023200 51 316 5.0 10.0 0.00 0.63 0.60 99 1026.2
20260505022200 51 332 7.0 11.0 0.02 0.63 0.60 99 1026.2
20260505021156 51 346 6.0 11.0 0.03 0.63 0.60 99 1026.2
20260505020156 52 16 8.0 15.0 0.04 0.63 0.60 99 1026.2
20260505015157 52 343 9.0 16.0 0.04 0.63 0.60 99 1026.2
20260505014157 53 349 6.0 11.0 0.04 0.63 0.60 99 1026.1
20260505013157 53 312 7.0 14.0 0.04 0.63 0.59 99 1025.9
20260505012158 55 289 7.0 15.0 0.05 0.62 0.58 99 1026.2
20260505011155 56 342 6.0 13.0 0.04 0.60 0.57 99 1026.7
20260505010631 56 341 8.0 16.0 0.03 0.60 0.56 99 1026.7
20260505005155 57 294 9.0 14.0 0.04 0.61 0.56 99 1026.7
20260505004155 57 294 9.0 16.0 0.03 0.60 0.56 99 1026.8
20260505003156 58 305 10.0 22.0 0.03 0.60 0.56 99 1026.8
20260505002155 60 352 8.0 14.0 0.00 0.57 0.53 99 1026.9
20260505001154 61 28 9.0 15.0 0.00 0.57 0.53 99 1027.0
20260505000154 61 347 10.0 18.0 0.00 0.57 0.53 99 1027.0
20260504235154 62 27 8.0 16.0 0.00 0.57 0.53 99 1027.2
20260504234154 63 346 8.0 14.0 0.00 0.57 0.53 99 1027.2
20260504233635 63 0 6.0 10.0 0.00 0.57 0.53 99 1027.4
20260504232151 63 0 7.0 13.0 0.00 0.57 0.53 99 1027.4
20260504231151 63 39 2.0 5.0 0.00 0.57 0.53 99 1027.6
20260504230151 62 290 3.0 9.0 0.00 0.57 0.53 99 1027.6
20260504225633 62 74 7.0 13.0 0.00 0.57 0.53 99 1027.4
20260504224152 62 137 5.0 9.0 0.00 0.57 0.53 99 1027.4
20260504223151 62 182 6.0 11.0 0.01 0.57 0.53 99 1027.3
20260504222149 62 153 8.0 14.0 0.04 0.57 0.53 99 1027.3
20260504221148 63 155 7.0 15.0 0.04 0.57 0.53 99 1027.5
20260504220149 62 172 8.0 17.0 0.06 0.57 0.53 99 1027.5
20260504215149 63 159 5.0 17.0 0.06 0.57 0.53 99 1027.4
20260504214149 63 334 6.0 19.0 0.06 0.57 0.52 99 1027.0
20260504213149 64 288 9.0 23.0 0.06 0.56 0.52 99 1027.2
20260504212149 65 22 8.0 18.0 0.02 0.53 0.49 99 1027.3
20260504211146 65 331 12.0 26.0 0.02 0.53 0.48 99 1027.4
20260504210146 67 328 8.0 20.0 0.00 0.51 0.47 99 1027.5
20260504205147 68 341 3.0 9.0 0.02 0.51 0.46 99 1028.0
20260504204147 68 298 5.0 10.0 0.06 0.51 0.46 99 1028.1
20260504203147 68 348 7.0 13.0 0.07 0.51 0.46 99 1028.8
20260504202145 67 297 5.0 13.0 0.07 0.51 0.46 99 1028.7
20260504201142 66 297 9.0 20.0 0.07 0.51 0.46 99 1028.4